Grand Island, NE

9:23 PM CST on December 04, 2016 (GMT -0600)
Central Nebraska Regional

Weather History for KGRI - July, 2013

Change the Weather History Date:

Saturday, July 13, 2013

  Actual Average Record
Temperature  
Mean Temperature 88 °F 76 °F  
Max Temperature 98 °F 88 °F 111 °F (1934)
Min Temperature 77 °F 65 °F 47 °F (1950)
Degree Days  
Heating Degree Days 0 0  
Month to date heating degree days 0 0  
Since 1 June heating degree days 21 24  
Since 1 July heating degree days 0 0  
Cooling Degree Days 23 12  
Month to date cooling degree days 187 145  
Year to date cooling degree days 541 423  
Since 1 June cooling degree days 446 358  
Growing Degree Days 38 (Base 50)    
Moisture  
Dew Point 70 °F    
Average Humidity 59    
Maximum Humidity 74    
Minimum Humidity 43    
Precipitation  
Precipitation 0.00 in 0.11 in 2.20 in (1952)
Month to date precipitation 0.10 1.48  
Year to date precipitation 15.10 15.73  
Snow  
Snow 0.00 in 0.00 in - ()
Month to date snowfall 0.0 0.0  
Since 1 June snowfall 0.0 0.0  
Since 1 July snowfall 0.0 0.0  
Snow Depth 0.00 in    
Sea Level Pressure  
Sea Level Pressure 29.85 in    
Wind  
Wind Speed 13 mph (SSE)    
Max Wind Speed 20 mph    
Max Gust Speed 26 mph    
Visibility 10 miles    
Events      
T = Trace of Precipitation, MM = Missing Value Source: NWS Daily Summary

Daily Weather History Graph

Daily Weather History Graph

Search for Another Location

Airport or City:

Trip Planner

Search our weather history database for the weather conditions in past years. The results will help you decide how hot, cold, wet, or windy it might be!

Date:

Astronomy

Jul. 13, 2013 Rise Set
Actual Time 6:12 AM CDT 9:04 PM CDT
Civil Twilight 5:40 AM CDT 9:37 PM CDT
Nautical Twilight 4:58 AM CDT 10:18 PM CDT
Astronomical Twilight 4:11 AM CDT 11:05 PM CDT
Moon 11:33 AM CDT (7/13) 11:43 PM CDT (7/13)
Length of Visible Light 15h 57m
Length of Day
14h 52m
Waxing Crescent, 26% of the Moon is Illuminated
Jul 13
Waxing Crescent
Jul 15
First Quarter
Jul 22
Full
Jul 29
Last Quarter
Aug 6
New

Hourly Weather History & Observations

Time (CDT) Temp. Heat Index Dew Point Humidity Pressure Visibility Wind Dir Wind Speed Gust Speed Precip Events Conditions
12:53 AM 82.0 °F 85.9 °F 70.0 °F 67% 29.85 in 10.0 mi SSE 13.8 mph - N/A   Clear
1:53 AM 80.1 °F 82.9 °F 69.1 °F 69% 29.87 in 10.0 mi South 11.5 mph - N/A   Clear
2:53 AM 81.0 °F 83.8 °F 68.0 °F 65% 29.86 in 10.0 mi South 11.5 mph - N/A   Clear
3:53 AM 81.0 °F 83.3 °F 66.9 °F 62% 29.85 in 10.0 mi South 16.1 mph - N/A   Clear
4:53 AM 79.0 °F - 66.9 °F 66% 29.85 in 10.0 mi South 13.8 mph - N/A   Clear
5:53 AM 78.1 °F - 66.9 °F 68% 29.85 in 10.0 mi South 12.7 mph - N/A   Clear
6:53 AM 77.0 °F - 68.0 °F 74% 29.89 in 10.0 mi Calm Calm - N/A   Clear
7:53 AM 78.1 °F - 69.1 °F 74% 29.88 in 10.0 mi SE 4.6 mph - N/A   Clear
8:53 AM 81.0 °F 84.1 °F 69.1 °F 67% 29.88 in 10.0 mi South 10.4 mph - N/A   Clear
9:53 AM 84.9 °F 88.8 °F 69.1 °F 59% 29.88 in 10.0 mi South 13.8 mph - N/A   Clear
10:53 AM 89.1 °F 93.7 °F 69.1 °F 52% 29.88 in 10.0 mi South 11.5 mph - N/A   Clear
11:53 AM 91.9 °F 96.9 °F 69.1 °F 47% 29.87 in 10.0 mi SSE 11.5 mph - N/A   Clear
12:53 PM 95.0 °F 100.7 °F 69.1 °F 43% 29.86 in 10.0 mi SSE 15.0 mph 19.6 mph N/A   Clear
1:53 PM 96.1 °F 103.5 °F 71.1 °F 44% 29.86 in 10.0 mi SE 12.7 mph - N/A   Clear
2:53 PM 96.1 °F 104.9 °F 72.0 °F 46% 29.85 in 10.0 mi SE 12.7 mph - N/A   Clear
3:53 PM 95.0 °F 103.2 °F 72.0 °F 47% 29.84 in 10.0 mi SE 13.8 mph - N/A   Clear
4:53 PM 96.1 °F 104.9 °F 72.0 °F 46% 29.83 in 10.0 mi SE 16.1 mph 24.2 mph N/A   Clear
5:53 PM 93.9 °F 103.4 °F 73.0 °F 51% 29.83 in 10.0 mi SE 15.0 mph 20.7 mph N/A   Clear
6:53 PM 93.9 °F 100.3 °F 70.0 °F 46% 29.82 in 10.0 mi SE 13.8 mph 19.6 mph N/A   Clear
7:53 PM 91.0 °F 99.3 °F 73.0 °F 55% 29.81 in 10.0 mi SE 10.4 mph 19.6 mph N/A   Clear
8:53 PM 87.1 °F 92.0 °F 70.0 °F 57% 29.83 in 10.0 mi SE 13.8 mph - N/A   Clear
9:53 PM 84.0 °F 87.8 °F 69.1 °F 61% 29.85 in 10.0 mi SE 13.8 mph - N/A   Clear
10:53 PM 82.0 °F 86.3 °F 71.1 °F 69% 29.85 in 10.0 mi SE 16.1 mph 20.7 mph N/A   Clear
11:53 PM 81.0 °F 85.2 °F 72.0 °F 74% 29.87 in 10.0 mi SSE 13.8 mph 24.2 mph N/A   Clear